Regional Weather Roundup
Issued by NWS Memphis, TN

Home | Current Version | Previous Version | Text Only | Print | Product List | Glossary On
Versions: 1 2 3 4 5 6 7 8 9 10 11 12 13 14 15 16 17 18 19 20 21 22 23 24 25 26 27 28 29 30 31 32 33 34 35 36 37 38 39 40 41 42 43 44 45 46 47 48 49 50
161
ASUS44 KMEG 260010
RWRMEG
MEMPHIS CWA HOURLY WEATHER ROUNDUP
NATIONAL WEATHER SERVICE MEMPHIS TN
600 PM CST SAT FEB 25 2017

...WEST TENNESSEE...

CITY           SKY/WX    TMP DP  RH WIND       PRES   REMARKS
MEMPHIS INTL   CLEAR     41  21  44 N6        30.14S
6HR MIN TEMP:  41; 6HR MAX TEMP:  47;

NWS MEMPHIS      N/A     43 N/A N/A MISG        N/A
JACKSON        CLEAR     41  22  46 NW7       30.14R
6HR MIN TEMP:  41; 6HR MAX TEMP:  46;

BOLIVAR        CLEAR     41  19  42 W5        30.13S
SAVANNAH       CLEAR     43  21  42 NW6G12    30.10S
UNION CITY     CLEAR     39  12  33 CALM      30.11S
PARIS          CLEAR     36  19  51 W7        30.12R WCI  30
HUNTINGDON     CLEAR     39  21  48 NW5       30.12R


...EASTERN ARKANSAS...

CITY           SKY/WX    TMP DP  RH WIND       PRES   REMARKS
JONESBORO      CLEAR     44  18  35 CALM      30.13S
6HR MIN TEMP:  40; 6HR MAX TEMP:  47;

WEST MEMPHIS   CLEAR     43  24  47 CALM      30.14F
6HR MIN TEMP:  40; 6HR MAX TEMP:  46;

BATESVILLE     CLEAR     45  16  31 NW3       30.14S
6HR MIN TEMP:  43; 6HR MAX TEMP:  48;

NEWPORT        CLEAR     44  18  35 NW7       30.14S
6HR MIN TEMP:  41; 6HR MAX TEMP:  49;

WALNUT RIDGE   CLEAR     45  16  31 NW7       30.13R
6HR MIN TEMP:  41; 6HR MAX TEMP:  48;

BLYTHEVILLE    CLEAR     41  22  46 NW5       30.14S
6HR MIN TEMP:  41; 6HR MAX TEMP:  48;

SEARCY         CLEAR     47  17  30 CALM      30.15S
6HR MIN TEMP:  45; 6HR MAX TEMP:  52;

STUTTGART      CLEAR     48  21  34 SW5       30.14F
6HR MIN TEMP:  45; 6HR MAX TEMP:  52;

PINE BLUFF     CLEAR     47  26  44 NE7       30.13F
6HR MIN TEMP:  46; 6HR MAX TEMP:  52;

MONTICELLO     CLEAR     48  27  44 E6        30.13S
6HR MIN TEMP:  48; 6HR MAX TEMP:  55;



...NORTH MISSISSIPPI...

CITY           SKY/WX    TMP DP  RH WIND       PRES   REMARKS
TUPELO         CLEAR     47  18  31 NW7       30.11R
6HR MIN TEMP:  47; 6HR MAX TEMP:  53;

OXFORD         CLEAR     43  23  45 NW9       30.15S
BATESVILLE     CLEAR     44  22  41 NW6       30.16R
6HR MIN TEMP:  44; 6HR MAX TEMP:  50;

OLIVE BRANCH   CLEAR    N/A N/A N/A NW7       30.13S
TUNICA         CLEAR     41  23  48 NW6       30.16S
CORINTH        CLEAR     43  19  39 NW8       30.11R
GREENWOOD      CLEAR     47  18  31 N6        30.14F
6HR MIN TEMP:  47; 6HR MAX TEMP:  53;

COLUMBUS       CLEAR     49  26  40 NW9       30.10R
6HR MIN TEMP:  49; 6HR MAX TEMP:  55;

STARKVILLE     CLEAR     48  23  37 NW5       30.13R
GOLDEN TRIANGL CLEAR     48  23  37 NW7       30.07


...SOUTHEAST MISSOURI...

CITY           SKY/WX    TMP DP  RH WIND       PRES   REMARKS
KENNETT        CLEAR     43  19  39 W6        30.12R
MALDEN         CLEAR     43  18  36 W6        30.13R
WEST PLAINS    CLEAR     40  10  29 NW6       30.10S
6HR MIN TEMP:  40; 6HR MAX TEMP:  46;

POPLAR BLUFF   CLEAR     43  12  28 NW8       30.11R
6HR MIN TEMP:  40; 6HR MAX TEMP:  47;

CAPE GIRARDEAU CLEAR     40  13  33 NW8       30.10S WCI  34
6HR MIN TEMP:  39; 6HR MAX TEMP:  45;



...NORTHWEST ALABAMA...

CITY           SKY/WX    TMP DP  RH WIND       PRES   REMARKS
MUSCLE SHOALS  CLEAR     46  20  35 NW10      30.09R
6HR MIN TEMP:  46; 6HR MAX TEMP:  52;



...MIDDLE TENNESSEE...

CITY           SKY/WX    TMP DP  RH WIND       PRES   REMARKS
NASHVILLE      CLEAR     44  16  32 NW10      30.08R
6HR MIN TEMP:  44; 6HR MAX TEMP:  49;

CLARKSVILLE    CLEAR     39  17  41 NW9       30.09R WCI  33
6HR MIN TEMP:  39; 6HR MAX TEMP:  45;

COLUMBIA       CLEAR     43  18  36 NW5       30.06R


...WESTERN KENTUCKY...

CITY           SKY/WX    TMP DP  RH WIND       PRES   REMARKS
PADUCAH        CLEAR     40  14  34 NW5       30.10R
6HR MIN TEMP:  40; 6HR MAX TEMP:  45;

FORT CAMPBELL  CLEAR     39  18  43 NW7       30.09R WCI  34
6HR MIN TEMP:  39; 6HR MAX TEMP:  44;



...CENTRAL ARKANSAS...

CITY           SKY/WX    TMP DP  RH WIND       PRES   REMARKS
LITTLE ROCK    CLEAR     45  18  34 N7        30.13F
6HR MIN TEMP:  45; 6HR MAX TEMP:  52;



SKY/WX REPORTED AS FAIR MEANS FEW OR NO CLOUDS BELOW
12 THOUSAND FEET.





USA.gov is the U.S. government's official web portal to all federal, state and local government web resources and services.